Вернуться в каталог

STARLINK-6080

АктивенСвязьVLEO
NORAD 56112·PAYLOAD·🇺🇸 United States

Запущен Mar 29, 2023 с Cape Canaveral Space Force Station

Loading…

Ближайшие Пролёты (ближайшие 24 часа)

TLE

СвежийSource: CelesTrak SupGP

Эпоха: Sep 15, 2026, 01:42 UTC

1 56112C 23046V   26258.07131944  .00005761  00000+0  20877-3 0  2585
2 56112  43.0025 172.3991 0001718 277.8011 334.1548 15.27557078    12

Отслеживайте STARLINK-6080 в реальном времени с AllMySat

Download on the App Store